[[{"header":{"parameterUnit":"m.s-1","parameterCategory":2,"la1":30.2991,"la2":30.254,"lo1":-89.0895,"lo2":-89.0444,"dy":0.0017,"dx":0.0017,"nx":28,"ny":28,"refTime":"2023-09-10T21:00:00:Z","depth":"0","parameterNumber":2,"parameterNumberName":"U-component_of_CURRENTS"},"data":[0,0,0,0,0,0,0,0,0,0,0,0,0,0,0,0,0,0,0,0,0,0,0,0,0,0,0,0,0,0,0,0,0,0,0,0,0,0,0,0,0,0,0,0,0,0,0,0,0,0,0,0,0,0,0,0,0,0,0.3096,0.3096,0,0.3131,0.3131,0.3132,0.3126,0.3125,0.3125,0.3124,0.3131,0.3131,0.3132,0,0,0,0,0,0,0,0,0,0,0,0,0,0.2988,0.299,0.3096,0.3096,0.3097,0.3131,0.3131,0.3132,0.3126,0.3125,0.3125,0.3124,0.3131,0.3131,0.3132,0,0,0,0,0,0,0,0,0,0,0,0,0,0.3028,0.299,0.3096,0.31,0.3101,0.3131,0.3131,0.3132,0.3126,0.3125,0.3125,0.3124,0.313,0.3131,0.3132,0.3149,0,0,0.3134,0.3135,0,0,0,0,0,0,0,0,0.3026,0.3032,0.3099,0.31,0.3101,0.3125,0.3096,0.3137,0.3126,0.3114,0.3124,0.3124,0.3128,0.3129,0.3134,0.3149,0.315,0.3134,0.3135,0.3135,0.3136,0,0,0,0,0,0,0,0.3023,0.303,0.3107,0.3099,0.3101,0.3088,0.3093,0.3103,0.3122,0.3115,0.3115,0.3123,0.3128,0.3133,0.3134,0.315,0.3134,0.3135,0.3136,0.3136,0.3189,0.319,0,0,0,0,0,0,0.3026,0.3028,0.3106,0.3109,0.3064,0.3091,0.3096,0.3116,0.3122,0.3123,0.3123,0.3123,0.3132,0.3133,0.3134,0.3168,0.3135,0.3136,0.3137,0.3188,0.3189,0.319,0,0,0,0,0,0,0.3024,0.3033,0.3105,0.307,0.3078,0.3094,0.3116,0.3117,0.3122,0.3129,0.3129,0.3127,0.3132,0.3133,0.3149,0.3168,0.3136,0.3137,0.3187,0.3188,0.319,0.3227,0,0,0,0,0,0,0.3021,0.3033,0.3045,0.3071,0.3081,0.3125,0.3117,0.3118,0.3129,0.3128,0.3133,0.3133,0.3132,0.3147,0.3149,0.3168,0.3138,0.3186,0.3188,0.3189,0.3225,0.323,0.3234,0,0,0,0,0,0.3017,0.3035,0.3046,0.3055,0.3099,0.3126,0.313,0.3136,0.313,0.3137,0.3141,0.3132,0.316,0.3149,0.3151,0.3171,0.3185,0.3187,0.3189,0.3223,0.3229,0.3234,0,0,0,0,0,0,0.2994,0.3038,0.3049,0.308,0.3104,0.3126,0.3134,0.3139,0.3148,0.3147,0.3144,0.3146,0.3167,0.3164,0.3152,0.3191,0.3171,0.3174,0.3196,0.3201,0.3206,0.3197,0.3139,0,0,0,0,0,0.2998,0.302,0.306,0.3081,0.3098,0.3116,0.3127,0.3137,0.3151,0.3154,0.3157,0.3164,0.3179,0.3185,0.3195,0.3216,0.3253,0.323,0.3234,0.3238,0.3233,0.3319,0.3331,0.3197,0.3197,0.3197,0,0,0.3,0.302,0.3037,0.3077,0.3096,0.3121,0.3121,0.3145,0.3158,0.3154,0.3169,0.3181,0.3188,0.3213,0.3222,0.3212,0.3301,0.3241,0.3244,0.3236,0.3322,0.3336,0.3347,0.3198,0.3198,0.3198,0,0,0.3008,0.3031,0.3057,0.3078,0.3111,0.3123,0.3131,0.3162,0.3168,0.3194,0.3194,0.3216,0.3234,0.3246,0.3253,0.3288,0.3323,0.3294,0.331,0.3394,0.3406,0.3417,0.3504,0.3523,0.3295,0.3295,0.3295,0,0.3012,0.3048,0.3066,0.3091,0.3111,0.3124,0.3156,0.3164,0.3192,0.3215,0.3202,0.3258,0.325,0.3295,0.3294,0.3298,0.3357,0.3289,0.3402,0.3413,0.3424,0.351,0.353,0.3297,0.3297,0.3297,0.3297,0,0.3039,0.3071,0.3085,0.3122,0.3139,0.317,0.319,0.3212,0.3222,0.3244,0.3295,0.3299,0.334,0.3336,0.3316,0.3386,0.3409,0.3401,0.339,0.344,0.3528,0.3548,0.33,0.33,0.3299,0.3299,0,0,0.3056,0.3102,0.3105,0.3131,0.3165,0.3182,0.3211,0.3257,0.3291,0.3316,0.3376,0.3379,0.3401,0.3408,0.3406,0.3446,0.3558,0.3447,0.3451,0.3537,0.3767,0.3707,0.3723,0.3584,0.3587,0.359,0.3808,0,0.3082,0.3132,0.3141,0.3184,0.3224,0.3241,0.3262,0.3299,0.3334,0.339,0.3419,0.3467,0.3425,0.3455,0.3494,0.3547,0.3609,0.3501,0.3701,0.3707,0.3651,0.3743,0.3541,0.3711,0.3827,0.383,0.3833,0,0.3122,0.3145,0.3197,0.3238,0.3253,0.3267,0.3324,0.3347,0.3422,0.3457,0.3526,0.3559,0.3628,0.3579,0.3723,0.3666,0.3715,0.3745,0.3755,0.3693,0.3683,0.3675,0.3743,0.3625,0.3864,0.3861,0.3859,0,0.3146,0.319,0.3228,0.3244,0.3284,0.3304,0.3318,0.3378,0.342,0.3513,0.3583,0.3669,0.3743,0.3814,0.387,0.3824,0.4031,0.3989,0.399,0.3988,0.3847,0.3826,0.382,0.4099,0.4098,0.4098,0.4097,0,0.3192,0.3226,0.3238,0.3263,0.3299,0.3314,0.3366,0.3404,0.3479,0.3557,0.3621,0.3718,0.3806,0.3928,0.3949,0.4047,0.4122,0.4015,0.4045,0.3855,0.3833,0.3746,0.3697,0.4106,0.4104,0.4103,0.4101,0,0.3238,0.3254,0.3298,0.3318,0.3323,0.3347,0.3389,0.3435,0.3503,0.3619,0.3663,0.3813,0.3972,0.4056,0.4198,0.4168,0.4121,0.4255,0.4023,0.4019,0.3856,0.3816,0.3739,0.3636,0.4298,0.4298,0.4298,0,0.3275,0.33,0.3324,0.3339,0.3349,0.3376,0.3403,0.345,0.3506,0.3676,0.3745,0.3936,0.4048,0.4238,0.4226,0.4297,0.4159,0.4142,0.3984,0.3837,0.3818,0.3666,0.3573,0.3838,0.3834,0.3831,0.3828,0,0.3318,0.332,0.3333,0.3361,0.3384,0.3418,0.3457,0.3498,0.3578,0.3665,0.3798,0.3897,0.4081,0.4054,0.4141,0.4144,0.3906,0.4078,0.399,0.3507,0.3279,0.3196,0.3721,0.38,0.3803,0.3805,0.3807,0.3808,0.3321,0.333,0.3327,0.3353,0.3386,0.3416,0.34,0.3458,0.351,0.3576,0.3756,0.3812,0.386,0.3937,0.3917,0.3733,0.3752,0.3584,0.3575,0.3455,0.3244,0.3706,0.3767,0.3769,0.3771,0.3773,0.3775,0,0.3275,0.3281,0.3313,0.3311,0.3318,0.3358,0.3392,0.3341,0.3337,0.3463,0.3531,0.3543,0.3513,0.3517,0.3389,0.3231,0.3064,0.3141,0.2865,0.2822,0.3295,0.3158,0.3011,0.3011,0.3011,0.3011,0.3011,0.3011,0.3242,0.3228,0.3239,0.3213,0.322,0.3157,0.3144,0.3096,0.312,0.3075,0.3056,0.3129,0.3184,0.3123,0.2933,0.2861,0.2628,0.2487,0.2537,0.2847,0.2886,0.2922,0.2781,0.2556,0.2556,0.1894,0.1889,0.1886]},{"header":{"parameterUnit":"m.s-1","parameterCategory":2,"la1":30.2991,"la2":30.254,"lo1":-89.0895,"lo2":-89.0444,"dy":0.0017,"dx":0.0017,"nx":28,"ny":28,"refTime":"2023-09-10T21:00:00:Z","depth":"0","parameterNumber":3,"parameterNumberName":"V-component_of_CURRENTS"},"data":[0,0,0,0,0,0,0,0,0,0,0,0,0,0,0,0,0,0,0,0,0,0,0,0,0,0,0,0,0,0,0,0,0,0,0,0,0,0,0,0,0,0,0,0,0,0,0,0,0,0,0,0,0,0,0,0,0,0,0.0057,0.0056,0,-0.0024,-0.0025,-0.0026,-0.0079,-0.0079,-0.0079,-0.008,-0.0171,-0.0173,-0.0175,0,0,0,0,0,0,0,0,0,0,0,0,0,0.0136,0.0135,0.0057,0.0056,0.0055,-0.0024,-0.0025,-0.0026,-0.0079,-0.0079,-0.0079,-0.008,-0.017,-0.0173,-0.0176,0,0,0,0,0,0,0,0,0,0,0,0,0,0.0083,0.0135,0.0057,0.002,0.0016,-0.0024,-0.0025,-0.0027,-0.0079,-0.0079,-0.0079,-0.008,-0.0169,-0.0173,-0.0176,-0.0188,0,0,-0.0186,-0.0187,0,0,0,0,0,0,0,0,0.0086,0.008,0.0026,0.0022,0.0018,-0.0041,-0.0031,-0.0081,-0.0079,-0.0044,-0.008,-0.008,-0.0128,-0.0134,-0.015,-0.0193,-0.0197,-0.0186,-0.0188,-0.019,-0.0191,0,0,0,0,0,0,0,0.0089,0.0083,0.0024,0.0025,0.002,-0.0003,-0.0011,-0.0041,-0.0083,-0.0047,-0.0051,-0.0058,-0.013,-0.0146,-0.0152,-0.0198,-0.0186,-0.0189,-0.0191,-0.0192,-0.0267,-0.0267,0,0,0,0,0,0,0.0103,0.0086,0.0026,0.0021,0.0052,-0.0004,-0.0013,-0.0023,-0.0083,-0.0092,-0.0058,-0.006,-0.0141,-0.0148,-0.0156,-0.0163,-0.019,-0.0193,-0.0195,-0.0267,-0.0267,-0.0267,0,0,0,0,0,0,0.0105,0.0098,0.003,0.0053,0.0043,-0.0004,-0.0015,-0.0024,-0.0038,-0.0091,-0.0101,-0.0063,-0.0141,-0.0151,-0.018,-0.0167,-0.0194,-0.0197,-0.0267,-0.0267,-0.0267,-0.0184,0,0,0,0,0,0,0.0108,0.0099,0.01,0.0054,0.0042,0.0015,-0.0015,-0.0025,-0.0042,-0.0046,-0.0099,-0.0108,-0.0142,-0.0175,-0.0183,-0.0172,-0.02,-0.0267,-0.0267,-0.0267,-0.0186,-0.0181,-0.0176,0,0,0,0,0,0.0111,0.0116,0.01,0.0093,0.0043,0.0016,0.0008,-0.0028,-0.0042,-0.0043,-0.0081,-0.0106,-0.0181,-0.0177,-0.0187,-0.0177,-0.0267,-0.0267,-0.0267,-0.0189,-0.0182,-0.0176,0,0,0,0,0,0,0.0146,0.011,0.0092,0.0084,0.0056,0.0007,0.0005,-0.0021,-0.0052,-0.0055,-0.0106,-0.0117,-0.014,-0.0172,-0.0166,-0.0201,-0.0228,-0.023,-0.0166,-0.016,-0.0154,-0.0111,-0.0202,0,0,0,0,0,0.0156,0.0152,0.0111,0.0104,0.0096,0.0052,0.0038,0.0013,-0.0022,-0.0036,-0.0074,-0.0114,-0.0148,-0.0163,-0.0201,-0.0214,-0.0212,-0.0216,-0.0211,-0.0206,-0.018,-0.0176,-0.0167,-0.0267,-0.0267,-0.0267,0,0,0.0162,0.0146,0.014,0.0112,0.0089,0.0085,0.0043,0.0028,0.0025,-0.0041,-0.0053,-0.0098,-0.015,-0.0169,-0.0182,-0.0192,-0.0175,-0.0206,-0.0201,-0.0177,-0.0175,-0.0165,-0.0156,-0.0267,-0.0267,-0.0267,0,0,0.0186,0.0167,0.0176,0.0161,0.0136,0.0113,0.0113,0.0071,0.0055,0.0032,-0.0015,-0.0047,-0.0101,-0.013,-0.0153,-0.0141,-0.015,-0.0159,-0.0091,-0.0088,-0.0079,-0.0071,-0.0037,-0.0026,-0.0152,-0.0152,-0.0152,0,0.0198,0.0202,0.0174,0.0182,0.018,0.0132,0.0145,0.0122,0.0074,0.0075,0.004,-0.0021,-0.0079,-0.0082,-0.0089,-0.0126,-0.0112,-0.0108,-0.0078,-0.007,-0.0063,-0.003,-0.0019,-0.0148,-0.0148,-0.0149,-0.0149,0,0.0232,0.0233,0.024,0.0238,0.0234,0.0234,0.0206,0.0202,0.0176,0.015,0.0138,0.0066,0.0041,0.0004,-0.0043,-0.0023,-0.0023,-0.0072,-0.0083,-0.0047,-0.0016,-0.0006,-0.0142,-0.0143,-0.0145,-0.0146,0,0,0.0264,0.0263,0.0267,0.0288,0.0266,0.0276,0.028,0.028,0.0314,0.0252,0.0295,0.02,0.0175,0.0148,0.009,0.0078,0.0119,0.0032,0.003,0.0087,0.0164,0.0139,0.0146,0.0082,0.0083,0.0085,0.0173,0,0.03,0.0339,0.0324,0.0367,0.0389,0.0363,0.0386,0.0382,0.0369,0.04,0.0335,0.0343,0.0228,0.0236,0.0202,0.0144,0.0146,0.0102,0.0103,0.0104,0.0093,0.0156,0.0137,0.0212,0.0183,0.0184,0.0185,0,0.0345,0.0369,0.0417,0.046,0.0472,0.0495,0.0554,0.0564,0.0578,0.0575,0.0564,0.0524,0.0503,0.0403,0.0344,0.0327,0.0261,0.0206,0.0208,0.0166,0.0097,0.0164,0.023,0.0067,0.02,0.0199,0.0198,0,0.0413,0.0442,0.0493,0.0502,0.0536,0.0575,0.0601,0.0624,0.067,0.0706,0.0761,0.0707,0.0731,0.0622,0.0489,0.0432,0.0443,0.0346,0.027,0.0269,0.0244,0.0237,0.017,0.0324,0.0324,0.0324,0.0323,0,0.0467,0.0511,0.0538,0.0573,0.0669,0.0663,0.0767,0.0787,0.0845,0.0943,0.0872,0.0961,0.0788,0.076,0.0593,0.0487,0.0526,0.0318,0.0296,0.0272,0.0267,0.0114,0.0019,0.0327,0.0326,0.0325,0.0325,0,0.0535,0.054,0.0618,0.0675,0.0705,0.0783,0.0879,0.0955,0.1,0.1137,0.1169,0.1185,0.1158,0.0982,0.0848,0.0659,0.0442,0.0477,0.0477,0.0451,0.018,0.0091,0.0042,-0.0021,0.0409,0.0409,0.0409,0,0.0574,0.0616,0.0709,0.0769,0.0802,0.0903,0.098,0.1034,0.1123,0.1287,0.1377,0.1416,0.1467,0.1271,0.0957,0.0709,0.0513,0.05,0.0355,0.0198,0.0082,0.0019,-0.0036,0.0369,0.0369,0.0369,0.0369,0,0.0656,0.0689,0.0753,0.0871,0.0965,0.1074,0.1188,0.1285,0.1384,0.1525,0.1716,0.1785,0.1627,0.1392,0.1038,0.0821,0.0379,0.0485,0.032,0.0058,-0.0009,-0.0091,0.0297,0.0366,0.0366,0.0367,0.0367,0.0367,0.0724,0.0784,0.0862,0.0979,0.1086,0.1228,0.1338,0.1476,0.166,0.1884,0.1949,0.2077,0.1713,0.124,0.0963,0.0386,0.0391,0.0165,0.0083,0.0044,-0.0062,0.0336,0.0363,0.0363,0.0363,0.0363,0.0364,0,0.0794,0.0851,0.096,0.1097,0.122,0.1267,0.1462,0.1587,0.1821,0.2035,0.2208,0.2077,0.1637,0.1143,0.0393,0.003,-0.0105,-0.0174,-0.0284,-0.0314,0.0043,-0.001,-0.006,-0.006,-0.006,-0.006,-0.006,-0.006,0.0835,0.0932,0.0981,0.1177,0.1279,0.1456,0.1575,0.1784,0.1956,0.2202,0.2267,0.229,0.1865,0.0653,-0.018,-0.0368,-0.0589,-0.0636,-0.073,-0.0531,-0.0507,-0.0484,-0.0557,-0.0721,-0.0722,-0.1058,-0.1062,-0.1065]}],[{"header":{"parameterUnit":"m.s-1","parameterCategory":2,"la1":30.2991,"la2":30.254,"lo1":-89.0895,"lo2":-89.0444,"dy":0.0017,"dx":0.0017,"nx":28,"ny":28,"refTime":"2023-09-10T21:00:00:Z","depth":"2","parameterNumber":2,"parameterNumberName":"U-component_of_CURRENTS"},"data":[0,0,0,0,0,0,0,0,0,0,0,0,0,0,0,0,0,0,0,0,0,0,0,0,0,0,0,0,0,0,0,0,0,0,0,0,0,0,0,0,0,0,0,0,0,0,0,0,0,0,0,0,0,0,0,0,0,0,0.219,0.219,0,0.2226,0.2227,0.2227,0.2313,0.2315,0.2316,0.2317,0.2307,0.2306,0.2305,0,0,0,0,0,0,0,0,0,0,0,0,0,0.2204,0.2204,0.219,0.219,0.219,0.2226,0.2227,0.2228,0.2313,0.2315,0.2316,0.2318,0.2308,0.2306,0.2304,0,0,0,0,0,0,0,0,0,0,0,0,0,0.222,0.2204,0.219,0.2233,0.2237,0.2225,0.2227,0.2228,0.2313,0.2315,0.2317,0.2319,0.2309,0.2306,0.2304,0.2252,0,0,0.2298,0.2297,0,0,0,0,0,0,0,0,0.2219,0.222,0.2226,0.223,0.2234,0.2262,0.2228,0.2232,0.2312,0.2289,0.2317,0.2319,0.2283,0.2283,0.2294,0.2251,0.2251,0.2297,0.2296,0.2295,0.2294,0,0,0,0,0,0,0,0.2218,0.2219,0.221,0.2226,0.2231,0.2253,0.2258,0.223,0.2278,0.2292,0.2297,0.2291,0.2286,0.2296,0.2294,0.2251,0.2297,0.2295,0.2294,0.2293,0.2388,0.2392,0,0,0,0,0,0,0.2199,0.2217,0.2208,0.221,0.2225,0.225,0.2256,0.2256,0.228,0.2284,0.229,0.2295,0.2299,0.2297,0.2294,0.24,0.2295,0.2293,0.2292,0.2384,0.2389,0.2393,0,0,0,0,0,0,0.22,0.2198,0.2207,0.221,0.2212,0.2248,0.2246,0.2255,0.2314,0.2278,0.2283,0.2344,0.23,0.2297,0.2328,0.2393,0.2292,0.229,0.238,0.2386,0.2391,0.2503,0,0,0,0,0,0,0.22,0.2198,0.2217,0.2209,0.2211,0.2238,0.2244,0.2254,0.2301,0.2311,0.2324,0.2323,0.2302,0.2332,0.2326,0.2389,0.2288,0.2375,0.2382,0.2389,0.2495,0.2512,0.2527,0,0,0,0,0,0.22,0.2225,0.2217,0.2217,0.2227,0.2239,0.2245,0.2279,0.2303,0.2339,0.2358,0.2326,0.2375,0.2332,0.2325,0.2388,0.2371,0.238,0.2388,0.2487,0.2509,0.2527,0,0,0,0,0,0,0.2247,0.2235,0.2227,0.2248,0.2253,0.2253,0.2279,0.2303,0.2347,0.2349,0.2346,0.2346,0.2398,0.2383,0.2336,0.2445,0.2378,0.2386,0.2457,0.2476,0.2492,0.2509,0.2286,0,0,0,0,0,0.2256,0.2269,0.2256,0.2272,0.2271,0.228,0.2298,0.2307,0.2326,0.2351,0.2368,0.2391,0.2418,0.2441,0.2439,0.2482,0.2474,0.2532,0.2548,0.2561,0.2576,0.2625,0.2646,0.2421,0.2421,0.2421,0,0,0.2268,0.2268,0.2272,0.2282,0.228,0.2299,0.23,0.2315,0.2357,0.2333,0.2413,0.2425,0.2439,0.2497,0.2523,0.2501,0.2625,0.2572,0.2583,0.2591,0.2636,0.2658,0.2677,0.2427,0.2426,0.2425,0,0,0.2291,0.2301,0.2313,0.2323,0.2319,0.2327,0.2344,0.2358,0.24,0.2462,0.2464,0.2524,0.2571,0.2598,0.2619,0.2723,0.2693,0.2744,0.2852,0.29,0.2918,0.2934,0.2955,0.2971,0.2771,0.2772,0.2772,0,0.2315,0.2317,0.2322,0.2337,0.2352,0.2351,0.2372,0.2408,0.2446,0.2493,0.2508,0.2611,0.2626,0.27,0.2775,0.2757,0.2777,0.2769,0.2918,0.2934,0.2948,0.2966,0.2982,0.2778,0.2777,0.2777,0.2776,0,0.2331,0.2346,0.2354,0.2374,0.2407,0.2412,0.2444,0.2482,0.2542,0.2605,0.27,0.2722,0.2792,0.283,0.2854,0.297,0.2948,0.2913,0.2859,0.2977,0.2989,0.3004,0.2787,0.2785,0.2783,0.2782,0,0,0.2343,0.236,0.236,0.2394,0.2418,0.2456,0.2503,0.2576,0.2647,0.2719,0.2826,0.2924,0.2953,0.298,0.2987,0.3073,0.3213,0.3077,0.3077,0.3082,0.3323,0.3205,0.321,0.3215,0.3219,0.3222,0.329,0,0.2348,0.2397,0.2392,0.246,0.2504,0.2509,0.2574,0.2651,0.2734,0.284,0.2898,0.3005,0.3002,0.3053,0.3131,0.3189,0.3261,0.3197,0.3223,0.3224,0.3091,0.3226,0.2975,0.3007,0.3305,0.3308,0.3309,0,0.2356,0.2406,0.2464,0.2539,0.2553,0.2597,0.2702,0.2752,0.2873,0.2942,0.3028,0.3084,0.3204,0.3186,0.3316,0.3284,0.333,0.3369,0.3371,0.3231,0.3135,0.2941,0.3023,0.3334,0.3332,0.3331,0.3329,0,0.2395,0.2452,0.2516,0.254,0.2624,0.2657,0.2699,0.2811,0.2867,0.3013,0.3088,0.3195,0.3271,0.3335,0.3418,0.34,0.3554,0.3505,0.342,0.3409,0.3183,0.3147,0.3602,0.3602,0.3602,0.3602,0.3601,0,0.2402,0.2462,0.2552,0.2584,0.2689,0.2736,0.2817,0.2872,0.2956,0.3041,0.3145,0.3203,0.3336,0.3422,0.3458,0.3485,0.3564,0.3466,0.3437,0.3215,0.3183,0.3447,0.3429,0.3604,0.3603,0.3603,0.3603,0,0.243,0.2464,0.2544,0.2642,0.27,0.2774,0.2844,0.2875,0.2989,0.3076,0.3129,0.3279,0.3391,0.3464,0.3594,0.3534,0.3566,0.3547,0.327,0.3207,0.3377,0.3364,0.3463,0.346,0.3457,0.3455,0.3453,0,0.2445,0.2524,0.2594,0.2636,0.2675,0.2783,0.2808,0.2885,0.291,0.3087,0.3112,0.3294,0.3341,0.3455,0.3442,0.3446,0.3535,0.3197,0.3107,0.3411,0.3373,0.3363,0.3354,0.2856,0.2849,0.2844,0.2839,0,0.2539,0.2548,0.256,0.2612,0.2648,0.2714,0.2773,0.2794,0.2868,0.2944,0.3048,0.3119,0.3241,0.315,0.3174,0.3135,0.3171,0.3083,0.3502,0.292,0.2841,0.2802,0.2812,0.2791,0.2796,0.2799,0.2802,0.2804,0.2552,0.2533,0.2502,0.2549,0.2588,0.2606,0.26,0.2643,0.2663,0.2714,0.2858,0.2865,0.2916,0.2829,0.2742,0.2704,0.2913,0.2778,0.2794,0.2816,0.2724,0.2644,0.2539,0.2542,0.2545,0.2547,0.255,0,0.2519,0.2473,0.2473,0.2414,0.2416,0.2512,0.2525,0.2451,0.2406,0.2501,0.2542,0.2348,0.2294,0.237,0.2231,0.2207,0.2182,0.2122,0.2077,0.2128,0.2172,0.2046,0.1681,0.1678,0.1675,0.1673,0,0,0.2455,0.2365,0.2303,0.2248,0.2284,0.2225,0.222,0.2139,0.2137,0.2047,0.2052,0.2196,0.2298,0.1961,0.1909,0.1778,0.1937,0.1709,0.2412,0.2411,0.2451,0.2563,0.2427,0,0,0,0,0]},{"header":{"parameterUnit":"m.s-1","parameterCategory":2,"la1":30.2991,"la2":30.254,"lo1":-89.0895,"lo2":-89.0444,"dy":0.0017,"dx":0.0017,"nx":28,"ny":28,"refTime":"2023-09-10T21:00:00:Z","depth":"2","parameterNumber":3,"parameterNumberName":"V-component_of_CURRENTS"},"data":[0,0,0,0,0,0,0,0,0,0,0,0,0,0,0,0,0,0,0,0,0,0,0,0,0,0,0,0,0,0,0,0,0,0,0,0,0,0,0,0,0,0,0,0,0,0,0,0,0,0,0,0,0,0,0,0,0,0,0.0165,0.0165,0,0.0115,0.0114,0.0113,0.0035,0.0034,0.0033,0.0032,-0.0036,-0.0037,-0.0038,0,0,0,0,0,0,0,0,0,0,0,0,0,0.0147,0.0147,0.0165,0.0165,0.0165,0.0116,0.0114,0.0113,0.0035,0.0034,0.0033,0.0032,-0.0035,-0.0037,-0.0038,0,0,0,0,0,0,0,0,0,0,0,0,0,0.0125,0.0147,0.0165,0.0125,0.0122,0.0116,0.0114,0.0113,0.0035,0.0034,0.0033,0.0032,-0.0035,-0.0036,-0.0038,-0.0024,0,0,-0.0043,-0.0044,0,0,0,0,0,0,0,0,0.0127,0.0125,0.0131,0.0128,0.0124,0.0086,0.0083,0.0068,0.0036,0.0061,0.0032,0.0031,0.0009,0.0003,-0.0013,-0.0027,-0.003,-0.0043,-0.0044,-0.0045,-0.0045,0,0,0,0,0,0,0,0.0128,0.0127,0.0139,0.0131,0.0127,0.0095,0.009,0.0079,0.0037,0.0059,0.0055,0.006,0.0005,-0.0011,-0.0015,-0.0031,-0.0043,-0.0044,-0.0045,-0.0046,-0.0109,-0.0109,0,0,0,0,0,0,0.0152,0.0129,0.014,0.0138,0.013,0.0097,0.0091,0.0094,0.0037,0.0029,0.0061,0.0057,-0.0008,-0.0013,-0.0017,-0.0048,-0.0045,-0.0046,-0.0047,-0.0108,-0.0109,-0.011,0,0,0,0,0,0,0.0152,0.0153,0.0143,0.0137,0.0135,0.0099,0.0103,0.0094,0.0064,0.004,0.003,0.004,-0.0009,-0.0015,-0.0041,-0.0049,-0.0047,-0.0048,-0.0107,-0.0108,-0.0109,-0.008,0,0,0,0,0,0,0.0151,0.0153,0.0153,0.0139,0.0136,0.0135,0.0104,0.0094,0.0073,0.0066,0.0019,0.0012,-0.001,-0.0039,-0.0043,-0.0052,-0.005,-0.0106,-0.0108,-0.0109,-0.008,-0.008,-0.008,0,0,0,0,0,0.0151,0.0157,0.0154,0.0155,0.0141,0.0136,0.013,0.0097,0.0074,0.0063,0.0027,0.0013,-0.0051,-0.004,-0.0045,-0.0054,-0.0106,-0.0107,-0.0109,-0.008,-0.008,-0.008,0,0,0,0,0,0,0.0146,0.0151,0.0146,0.0152,0.0146,0.0125,0.012,0.0096,0.0058,0.0053,0.0012,0.0003,-0.0022,-0.0043,-0.0031,-0.0079,-0.0084,-0.0086,-0.006,-0.0061,-0.006,-0.0033,-0.0051,0,0,0,0,0,0.0151,0.0157,0.0156,0.0162,0.0164,0.0141,0.0132,0.0116,0.0091,0.0071,0.0036,-0.0,-0.003,-0.0049,-0.0071,-0.0091,-0.009,-0.0105,-0.0105,-0.0105,-0.0087,-0.0081,-0.0078,-0.0115,-0.0115,-0.0115,0,0,0.0151,0.0157,0.0159,0.0162,0.0155,0.0162,0.0129,0.0129,0.0124,0.0074,0.0046,0.0008,-0.0034,-0.0061,-0.0075,-0.0081,-0.01,-0.0107,-0.0106,-0.0088,-0.0082,-0.0078,-0.0075,-0.0116,-0.0116,-0.0116,0,0,0.0166,0.0164,0.0177,0.0179,0.0185,0.0175,0.0176,0.0156,0.0135,0.011,0.0071,0.0031,-0.0021,-0.0049,-0.0071,-0.0081,-0.0093,-0.0104,-0.0085,-0.008,-0.0076,-0.0072,-0.0085,-0.0083,-0.0111,-0.0111,-0.0111,0,0.0162,0.0186,0.0178,0.0195,0.0205,0.0183,0.0202,0.0182,0.015,0.0144,0.0105,0.0038,-0.0011,-0.0028,-0.0057,-0.0077,-0.0084,-0.008,-0.0076,-0.0073,-0.0069,-0.0084,-0.0081,-0.011,-0.011,-0.011,-0.011,0,0.0195,0.0209,0.0221,0.0237,0.024,0.0257,0.0247,0.0244,0.0211,0.0182,0.0155,0.009,0.0056,0.0013,-0.0039,-0.0045,-0.0062,-0.0068,-0.0068,-0.0063,-0.008,-0.0078,-0.0108,-0.0108,-0.0109,-0.0109,0,0,0.0202,0.0235,0.0241,0.0262,0.027,0.0283,0.0293,0.0297,0.031,0.0251,0.0257,0.0162,0.0129,0.0101,0.0045,0.0014,-0.0006,-0.0032,-0.0032,-0.003,-0.0007,-0.0054,-0.0057,-0.0011,-0.001,-0.0009,-0.0034,0,0.0231,0.0275,0.0285,0.0326,0.0348,0.0353,0.0367,0.0366,0.0341,0.0338,0.0277,0.0255,0.0165,0.0147,0.0104,0.0036,0.0003,0.0001,-0.0025,-0.0026,-0.0055,-0.0055,-0.0027,-0.005,-0.0032,-0.0032,-0.0032,0,0.0263,0.0292,0.0337,0.0387,0.0401,0.0421,0.0465,0.0478,0.0471,0.0453,0.0427,0.0378,0.0331,0.0254,0.0167,0.0169,0.0081,0.0015,0.0014,-0.0032,-0.0068,-0.005,-0.0047,-0.0029,-0.0029,-0.0029,-0.0029,0,0.0283,0.0332,0.0373,0.0388,0.0433,0.0468,0.0497,0.0507,0.054,0.0538,0.0555,0.0496,0.0486,0.0384,0.0228,0.0205,0.0127,0.0095,-0.0026,-0.003,-0.0011,-0.0016,0.0039,0.0039,0.0039,0.0039,0.0039,0,0.0314,0.0347,0.0388,0.0418,0.0488,0.0502,0.0575,0.06,0.0636,0.0689,0.0623,0.0653,0.0516,0.0446,0.0289,0.0142,0.0189,-0.0014,-0.0033,-0.0006,-0.001,0.0009,0.0006,0.0038,0.0038,0.0039,0.0039,0,0.0319,0.0349,0.0403,0.0467,0.0501,0.0548,0.0651,0.0691,0.0729,0.0808,0.0821,0.0788,0.0708,0.0549,0.0391,0.024,0.0091,0.0021,0.0045,0.0028,-0.0089,-0.009,-0.0096,-0.0097,-0.0099,-0.01,-0.0101,0,0.0311,0.0338,0.044,0.049,0.0525,0.0605,0.0664,0.0732,0.0792,0.0891,0.0934,0.0896,0.0865,0.0617,0.0368,0.0129,0.0086,-0.0028,-0.0075,-0.0081,-0.0099,-0.0099,-0.0098,-0.0046,-0.0046,-0.0046,-0.0047,0,0.0296,0.034,0.0407,0.0515,0.0589,0.0676,0.0778,0.0857,0.0951,0.1041,0.1143,0.1132,0.0909,0.0683,0.0338,0.0164,0.0013,-0.0046,-0.0022,-0.0026,-0.0039,-0.0055,-0.0055,-0.005,-0.005,-0.005,-0.0049,-0.0049,0.028,0.0333,0.0435,0.0543,0.0633,0.0743,0.0838,0.0962,0.111,0.1269,0.1256,0.1255,0.0989,0.0558,0.0275,-0.0015,-0.0012,-0.0131,-0.0127,-0.0123,-0.0123,-0.0139,-0.017,-0.017,-0.017,-0.0171,-0.0171,0,0.0253,0.0333,0.0448,0.0598,0.0706,0.0748,0.0908,0.1021,0.1222,0.1337,0.1423,0.1168,0.0897,0.0599,0.0173,-0.0106,-0.0116,-0.0194,-0.0137,-0.0132,-0.0128,-0.0127,-0.0175,-0.0176,-0.0177,-0.0177,0,0,0.0246,0.0347,0.0443,0.0632,0.0735,0.0878,0.0973,0.1166,0.1291,0.1417,0.143,0.1356,0.0989,0.0673,0.0316,0.0083,0.0035,0.0027,0.0058,0.0173,0.018,-0.0067,-0.0057,0,0,0,0,0]}],[{"header":{"parameterUnit":"m.s-1","parameterCategory":2,"la1":30.2991,"la2":30.254,"lo1":-89.0895,"lo2":-89.0444,"dy":0.0017,"dx":0.0017,"nx":28,"ny":28,"refTime":"2023-09-10T21:00:00:Z","depth":"4","parameterNumber":2,"parameterNumberName":"U-component_of_CURRENTS"},"data":[0,0,0,0,0,0,0,0,0,0,0,0,0,0,0,0,0,0,0,0,0,0,0,0,0,0,0,0,0,0,0,0,0,0,0,0,0,0,0,0,0,0,0,0,0,0,0,0,0,0,0,0,0,0,0,0,0,0,0.1095,0.1095,0,0.1144,0.1145,0.1145,0.1187,0.1187,0.1188,0.1188,0.126,0.1262,0.1263,0,0,0,0,0,0,0,0,0,0,0,0,0,0.1083,0.1083,0.1095,0.1095,0.1096,0.1144,0.1145,0.1145,0.1187,0.1187,0.1188,0.1188,0.126,0.1262,0.1263,0,0,0,0,0,0,0,0,0,0,0,0,0,0.1107,0.1083,0.1095,0.1121,0.1124,0.1144,0.1145,0.1146,0.1187,0.1187,0.1188,0.1188,0.1259,0.1261,0.1264,0.1269,0,0,0.1271,0.1272,0,0,0,0,0,0,0,0,0.1106,0.1108,0.1117,0.1119,0.1122,0.1159,0.1167,0.1188,0.1187,0.1164,0.1188,0.1188,0.1227,0.1232,0.1242,0.1272,0.1275,0.1271,0.1273,0.1274,0.1275,0,0,0,0,0,0,0,0.1104,0.1106,0.1116,0.1117,0.1121,0.1147,0.115,0.1171,0.1194,0.1166,0.1169,0.1172,0.1229,0.1239,0.1244,0.1276,0.1271,0.1273,0.1275,0.1276,0.139,0.1391,0,0,0,0,0,0,0.1092,0.1104,0.1114,0.1117,0.1114,0.1146,0.115,0.1148,0.1193,0.12,0.1172,0.1174,0.1235,0.1241,0.1247,0.1313,0.1274,0.1276,0.1277,0.1388,0.139,0.1392,0,0,0,0,0,0,0.1092,0.1092,0.1112,0.1111,0.1115,0.1145,0.1142,0.1148,0.1183,0.1197,0.1205,0.1203,0.1236,0.1243,0.1291,0.1314,0.1277,0.1279,0.1386,0.1389,0.1391,0.1409,0,0,0,0,0,0,0.1091,0.1092,0.1103,0.111,0.1115,0.1139,0.1142,0.1149,0.1182,0.1187,0.1226,0.1232,0.1237,0.1287,0.1293,0.1317,0.1281,0.1384,0.1387,0.139,0.1406,0.1411,0.1416,0,0,0,0,0,0.109,0.1096,0.1103,0.1105,0.1123,0.114,0.1146,0.1169,0.1184,0.1203,0.1234,0.1232,0.131,0.1291,0.1297,0.1322,0.1383,0.1386,0.139,0.1404,0.141,0.1416,0,0,0,0,0,0,0.1097,0.11,0.1109,0.1116,0.1135,0.1147,0.1168,0.1184,0.1223,0.1236,0.1251,0.1259,0.1314,0.1318,0.1295,0.1365,0.1347,0.1352,0.1355,0.1362,0.1366,0.1381,0.1283,0,0,0,0,0,0.1102,0.1113,0.1118,0.1132,0.1138,0.116,0.1176,0.1192,0.1217,0.1236,0.1263,0.1295,0.1329,0.1345,0.1377,0.1409,0.1439,0.1431,0.1436,0.144,0.1459,0.1518,0.153,0.1403,0.1403,0.1403,0,0,0.1106,0.1115,0.112,0.1136,0.1153,0.1167,0.1172,0.1201,0.1226,0.1237,0.1291,0.132,0.1346,0.1388,0.1412,0.1395,0.1494,0.1444,0.1447,0.1464,0.1523,0.1535,0.1546,0.1406,0.1405,0.1405,0,0,0.112,0.113,0.1143,0.1156,0.1184,0.1195,0.1207,0.1232,0.1259,0.1303,0.1325,0.1371,0.1413,0.1438,0.1454,0.1506,0.1525,0.1515,0.1542,0.1599,0.161,0.162,0.1678,0.1693,0.1507,0.1508,0.1508,0,0.113,0.114,0.1153,0.1168,0.1185,0.1208,0.1227,0.1251,0.1295,0.1328,0.1327,0.1427,0.1438,0.1503,0.1515,0.1517,0.1556,0.1512,0.1605,0.1615,0.1625,0.1682,0.1698,0.1509,0.1509,0.1509,0.1508,0,0.1142,0.116,0.117,0.1196,0.1221,0.124,0.1266,0.1309,0.1343,0.1368,0.1452,0.148,0.1546,0.1546,0.1541,0.162,0.1628,0.161,0.1586,0.1639,0.1696,0.1712,0.1511,0.151,0.151,0.1509,0,0,0.1135,0.1169,0.1178,0.1192,0.1236,0.1251,0.1309,0.1361,0.1416,0.1459,0.1533,0.1579,0.1615,0.1638,0.165,0.1679,0.1766,0.1671,0.1674,0.1723,0.1906,0.1759,0.1763,0.1764,0.1767,0.1769,0.1919,0,0.1144,0.1161,0.1197,0.1233,0.1233,0.1292,0.1353,0.1411,0.1463,0.154,0.1585,0.1663,0.1643,0.1693,0.1722,0.1767,0.1811,0.1728,0.1854,0.1858,0.1715,0.1777,0.1779,0.1931,0.1935,0.1938,0.194,0,0.114,0.115,0.1174,0.1243,0.1259,0.1308,0.1413,0.148,0.1588,0.1635,0.1718,0.1759,0.1844,0.1806,0.1925,0.1878,0.1904,0.1918,0.1924,0.1793,0.1741,0.1869,0.197,0.1968,0.1965,0.1963,0.1961,0,0.1099,0.1143,0.1162,0.1175,0.1254,0.1319,0.1402,0.1516,0.159,0.1721,0.1785,0.188,0.1956,0.2007,0.2037,0.2004,0.2144,0.2103,0.2002,0.1993,0.2073,0.206,0.219,0.219,0.2189,0.2189,0.2188,0,0.1074,0.1088,0.1147,0.1157,0.1222,0.1312,0.1436,0.1523,0.1669,0.175,0.1854,0.1917,0.201,0.2083,0.2094,0.2102,0.2207,0.203,0.2024,0.2077,0.2064,0.2085,0.2071,0.2194,0.2193,0.2192,0.2191,0,0.1007,0.1047,0.1053,0.1144,0.1201,0.1247,0.1451,0.1528,0.1693,0.1806,0.1859,0.1986,0.2083,0.2154,0.224,0.2171,0.2193,0.2167,0.2245,0.2237,0.1997,0.1982,0.2087,0.2083,0.2079,0.2077,0.2074,0,0.0952,0.0954,0.1032,0.1057,0.1107,0.1225,0.1326,0.1514,0.1591,0.1814,0.1841,0.1997,0.206,0.2096,0.2159,0.2209,0.2165,0.2173,0.2054,0.2004,0.1989,0.1979,0.1969,0.2069,0.2068,0.2067,0.2066,0,0.084,0.0885,0.0915,0.0982,0.1059,0.1123,0.1278,0.1332,0.1545,0.1703,0.1791,0.1853,0.1954,0.2006,0.2065,0.2078,0.2162,0.2137,0.2143,0.2032,0.1984,0.197,0.1964,0.2055,0.2057,0.2058,0.2058,0,0.0766,0.0757,0.0838,0.089,0.0963,0.099,0.1092,0.1215,0.1332,0.1588,0.1603,0.1777,0.1921,0.194,0.1983,0.1999,0.1959,0.1878,0.1897,0.191,0.1776,0.1684,0.1677,0,0,0,0,0,0.0678,0.0701,0.0749,0.079,0.0858,0.0901,0.1044,0.115,0.1364,0.1384,0.1501,0.1589,0.1678,0.176,0.1742,0.1881,0.1946,0.1848,0.1856,0.1991,0.2004,0.1857,0,0,0,0,0,0,0.0625,0.067,0.0716,0.0704,0.072,0.0776,0.0844,0.0978,0.1019,0.1242,0.1307,0.1474,0.1587,0.1672,0.1704,0.173,0.1696,0.1966,0.1961,0.1984,0.1996,0.2006,0.186,0,0,0,0,0]},{"header":{"parameterUnit":"m.s-1","parameterCategory":2,"la1":30.2991,"la2":30.254,"lo1":-89.0895,"lo2":-89.0444,"dy":0.0017,"dx":0.0017,"nx":28,"ny":28,"refTime":"2023-09-10T21:00:00:Z","depth":"4","parameterNumber":3,"parameterNumberName":"V-component_of_CURRENTS"},"data":[0,0,0,0,0,0,0,0,0,0,0,0,0,0,0,0,0,0,0,0,0,0,0,0,0,0,0,0,0,0,0,0,0,0,0,0,0,0,0,0,0,0,0,0,0,0,0,0,0,0,0,0,0,0,0,0,0,0,0.0236,0.0236,0,0.022,0.0219,0.0219,0.021,0.0211,0.0211,0.0211,0.0171,0.017,0.0168,0,0,0,0,0,0,0,0,0,0,0,0,0,0.021,0.0211,0.0236,0.0236,0.0236,0.022,0.0219,0.0219,0.021,0.0211,0.0211,0.0211,0.0171,0.017,0.0168,0,0,0,0,0,0,0,0,0,0,0,0,0,0.021,0.0211,0.0236,0.0231,0.023,0.022,0.0219,0.0219,0.021,0.0211,0.0211,0.0211,0.0172,0.017,0.0168,0.0155,0,0,0.0163,0.0162,0,0,0,0,0,0,0,0,0.021,0.021,0.0231,0.0231,0.023,0.0218,0.0196,0.0197,0.021,0.0217,0.0211,0.0211,0.0185,0.0182,0.0178,0.0153,0.0151,0.0163,0.0162,0.0161,0.0161,0,0,0,0,0,0,0,0.021,0.0211,0.0229,0.0231,0.0231,0.0212,0.0212,0.0196,0.0199,0.0216,0.0216,0.0216,0.0184,0.0179,0.0177,0.0151,0.0163,0.0161,0.016,0.016,0.0135,0.0135,0,0,0,0,0,0,0.0217,0.0211,0.0229,0.0228,0.0221,0.0213,0.0213,0.0221,0.02,0.0197,0.0216,0.0215,0.0182,0.0179,0.0175,0.0185,0.0161,0.0159,0.0158,0.0135,0.0135,0.0135,0,0,0,0,0,0,0.0216,0.0219,0.023,0.0219,0.022,0.0213,0.0222,0.0221,0.0222,0.02,0.0196,0.0219,0.0182,0.0178,0.017,0.0183,0.0159,0.0157,0.0134,0.0135,0.0135,0.0188,0,0,0,0,0,0,0.0216,0.0219,0.0228,0.022,0.0221,0.0234,0.0222,0.022,0.0222,0.0221,0.0202,0.0198,0.0182,0.0172,0.0168,0.018,0.0156,0.0134,0.0134,0.0135,0.0186,0.019,0.0194,0,0,0,0,0,0.0215,0.0227,0.0228,0.023,0.0233,0.0234,0.0233,0.0227,0.0222,0.0227,0.0213,0.0199,0.0174,0.0171,0.0166,0.0178,0.0133,0.0134,0.0135,0.0184,0.019,0.0194,0,0,0,0,0,0,0.0218,0.0227,0.0228,0.0243,0.0243,0.0233,0.0237,0.0231,0.0224,0.0224,0.0201,0.0197,0.0195,0.0177,0.0175,0.0172,0.0152,0.0151,0.0191,0.0196,0.02,0.02,0.0154,0,0,0,0,0,0.0224,0.0236,0.0239,0.0249,0.0253,0.0246,0.0245,0.0243,0.0236,0.0233,0.0218,0.0203,0.0193,0.0188,0.0174,0.017,0.0132,0.0175,0.0179,0.0183,0.0179,0.0128,0.0127,0.0138,0.0138,0.0138,0,0,0.0227,0.0233,0.024,0.0251,0.025,0.0261,0.0246,0.0252,0.026,0.0229,0.0234,0.0216,0.0195,0.0195,0.0192,0.0182,0.016,0.0184,0.0187,0.0181,0.0129,0.0127,0.0126,0.0139,0.0139,0.0139,0,0,0.0236,0.0247,0.0261,0.0268,0.0275,0.0273,0.0278,0.0276,0.0277,0.0279,0.0259,0.0249,0.0235,0.0221,0.0212,0.0229,0.0183,0.0227,0.025,0.0201,0.02,0.0198,0.0151,0.0145,0.0231,0.0231,0.0231,0,0.0239,0.0262,0.0263,0.0279,0.029,0.0282,0.0301,0.03,0.0294,0.0293,0.029,0.0261,0.0247,0.0237,0.0249,0.0238,0.02,0.0235,0.0206,0.0203,0.02,0.0153,0.0145,0.0233,0.0233,0.0233,0.0232,0,0.026,0.0282,0.0291,0.0313,0.0322,0.0338,0.0342,0.0348,0.0347,0.0338,0.0331,0.0308,0.0288,0.0288,0.0276,0.0255,0.0231,0.0217,0.0193,0.0202,0.0152,0.0143,0.0237,0.0236,0.0235,0.0235,0,0,0.026,0.0299,0.0305,0.0327,0.0346,0.0357,0.0375,0.0383,0.0387,0.0378,0.0374,0.0362,0.0338,0.0326,0.0305,0.027,0.0226,0.024,0.0237,0.0195,0.0113,0.0111,0.01,0.0203,0.0201,0.02,0.0087,0,0.0279,0.0324,0.0334,0.0375,0.0403,0.0407,0.0423,0.0427,0.042,0.0411,0.0385,0.0372,0.0356,0.0348,0.031,0.0245,0.0203,0.0258,0.0109,0.0105,0.0102,0.009,0.0196,0.008,0.0078,0.0076,0.0075,0,0.0297,0.0332,0.0381,0.0421,0.0432,0.0449,0.047,0.0483,0.0466,0.0459,0.0433,0.0401,0.036,0.0343,0.0228,0.0261,0.0192,0.0139,0.0133,0.0104,0.0086,0.0067,0.0058,0.0059,0.006,0.0062,0.0063,0,0.0308,0.036,0.0403,0.042,0.0464,0.0481,0.0497,0.0496,0.051,0.0482,0.0481,0.0413,0.0386,0.029,0.0194,0.0202,0.0056,0.005,-0.0021,-0.0022,-0.001,-0.0007,-0.0042,-0.0042,-0.0042,-0.0042,-0.0041,0,0.0326,0.0361,0.0414,0.0442,0.0493,0.0507,0.0539,0.0543,0.0543,0.0556,0.0506,0.0491,0.037,0.0281,0.0185,0.0054,0.0043,-0.0026,-0.0054,0.0016,0.0024,-0.0017,-0.0012,-0.0046,-0.0045,-0.0044,-0.0043,0,0.033,0.0365,0.0419,0.0478,0.0502,0.0536,0.0585,0.0605,0.0599,0.0613,0.061,0.0535,0.0419,0.0292,0.0126,0.0049,-0.0078,-0.0123,-0.004,-0.006,-0.0124,-0.0116,-0.0221,-0.0222,-0.0223,-0.0224,-0.0225,0,0.0341,0.0374,0.0449,0.049,0.0521,0.0576,0.0621,0.0639,0.066,0.0643,0.0651,0.0548,0.0485,0.0251,0.0108,-0.0094,-0.0114,-0.0187,-0.0153,-0.0127,-0.0145,-0.0134,-0.0125,-0.0226,-0.0226,-0.0227,-0.0227,0,0.037,0.039,0.0433,0.0519,0.0578,0.0645,0.07,0.072,0.0738,0.073,0.0684,0.0569,0.0431,0.0252,0.0092,-0.0048,-0.0144,-0.0197,-0.0196,-0.0165,-0.0135,-0.0148,-0.0138,-0.023,-0.023,-0.0229,-0.0229,0,0.0389,0.0416,0.0473,0.0542,0.0619,0.0692,0.0721,0.075,0.0771,0.075,0.0725,0.0587,0.0495,0.0274,0.0129,-0.0013,-0.0045,-0.0085,-0.0091,-0.0089,-0.0011,0.0049,-0.0022,0,0,0,0,0,0.0412,0.0441,0.0501,0.0577,0.0647,0.0699,0.0769,0.079,0.0802,0.0782,0.0757,0.0634,0.0414,0.031,0.0169,0.0105,-0.0076,-0.0067,-0.0125,-0.0248,-0.0244,-0.0174,0,0,0,0,0,0,0.0424,0.048,0.0498,0.0591,0.0646,0.0738,0.0786,0.0804,0.0786,0.077,0.0655,0.0594,0.0377,0.0495,0.0163,0.0118,0.0061,-0.0173,-0.0177,-0.025,-0.0246,-0.0243,-0.0171,0,0,0,0,0]}]]